Вернуться в каталог

CZ-4 DEB

АктивенSSO
NORAD 35379·DEBRIS·🇨🇳 China

Запущен Oct 21, 2003 с Taiyuan Satellite Launch Center

Loading…

Ближайшие Пролёты (ближайшие 24 часа)

TLE

УстаревающийSource: Space-Track

Эпоха: Sep 5, 2026, 11:37 UTC

1 35379U 03049F   26248.48465575  .00000249  00000-0  20344-3 0  9990
2 35379  98.7780  81.7723 0173877  27.6309   2.3855 13.91236145137241

Отслеживайте CZ-4 DEB в реальном времени с AllMySat

Download on the App Store